Location: Boquerón
(10.0687°N, 67.9212°W)
Time: 09:13:37
(UTC+00:00)

Cosmos 192 - Pass Details

Date: 29 May 2024
Orbit: 698 x 710 km, 74.0° (Epoch: 16 June)

Event Time Altitude Azimuth Distance (km) Brightness Sun altitude
Rises 23:26:47 0° 351° (N) 3,095 8.1 -9.3°
Reaches altitude 10° 23:29:07 10° 354° (N) 2,177 7.3 -9.9°
Maximum altitude 23:34:00 68° 77° (ENE) 764 4.3 -10.9°
Drops below altitude 10° 23:38:54 10° 160° (SSE) 2,178 6.4 -12.0°
Enters shadow 23:39:43 - 161° (SSE) 2,498 6.8 -12.2°
